Stations météo

réclame
Mon MeteoGroup
Garmisch-Partenkirchen, Allemagne (10963): Température de l'air & dewpoint: 18.01.2018 10:00:00 - 24.01.2018 10:00:00 (CET)Garmisch-Partenkirchen, Allemagne (10963): Température de l'air 5cm & Température de l'air -5cm: 18.01.2018 10:00:00 - 24.01.2018 10:00:00 (CET)Garmisch-Partenkirchen, Allemagne (10963): Température de l'air -20cm & Température de l'air -100cm: 18.01.2018 10:00:00 - 24.01.2018 10:00:00 (CET)Garmisch-Partenkirchen, Allemagne (10963): Vitesse du vent & gusts: 18.01.2018 10:00:00 - 24.01.2018 10:00:00 (CET)Garmisch-Partenkirchen, Allemagne (10963): Direction du vent: 18.01.2018 10:00:00 - 24.01.2018 10:00:00 (CET)Garmisch-Partenkirchen, Allemagne (10963): reduced air pressure: 18.01.2018 10:00:00 - 24.01.2018 10:00:00 (CET)Garmisch-Partenkirchen, Allemagne (10963): visibility: 18.01.2018 10:00:00 - 24.01.2018 10:00:00 (CET)Garmisch-Partenkirchen, Allemagne (10963): Ensoleillement: 18.01.2018 10:00:00 - 24.01.2018 10:00:00 (CET)Garmisch-Partenkirchen, Allemagne (10963): Quantités de précipitations: 18.01.2018 10:00:00 - 24.01.2018 10:00:00 (CET)
Date & Time tt [°C] td [°C] tt 5cm [°C] tt -5cm [°C] tt -20cm [°C] tt -100cm [°C] ff [km/h] ff [knt] fx [km/h] fx [knt] dd ppp [hPa] vv [km] sd [min] rr [mm]
24.01.2018 10:00:00 0,3 -0,5 -1,0 0,2 0,5 3,2 4 2 8 5 SSW 1030,5 16 26 0,0
24.01.2018 09:00:00 -0,7 -1,1 -3,0 0,2 0,5 3,2 2 1 8 4 NNW 1031,1 26 0 0,0
24.01.2018 08:00:00 -0,8 -1,1 -2,3 0,2 0,5 3,2 5 3 7 4 WSW 1031,5 30 0 0,0
24.01.2018 07:00:00 -0,5 -0,8 -2,6 0,2 0,5 3,2 3 1 8 4 WSW 1031,1 22 0 0,0
24.01.2018 06:00:00 -0,7 -1,1 -1,7 0,2 0,5 3,2 3 1 6 4 WSW 1030,9 23 0 0,0
24.01.2018 05:00:00 -0,8 -1,2 -1,6 0,2 0,5 3,2 2 1 8 4 SSW 1030,9 23 0 0,0
24.01.2018 04:00:00 -1,4 -1,8 -2,3 0,2 0,5 3,2 1 0 6 4 S 1031,2 20 0 0,0
24.01.2018 03:00:00 -2,4 -2,8 -3,7 0,2 0,5 3,2 0 0 6 3 N 1032,1 18 0 0,0
24.01.2018 02:00:00 -2,8 -3,2 -7,3 0,2 0,5 3,2 1 1 6 3 ESE 1032,1 12 0 0,0
24.01.2018 01:00:00 -2,5 -3,0 -5,9 0,2 0,5 3,2 3 2 10 5 SW 1031,8 9 0 0,0
24.01.2018 00:00:00 -2,2 -2,6 -4,8 0,2 0,5 3,2 2 1 8 4 NW 1031,5 9 0 0,0
23.01.2018 23:00:00 -1,7 -2,0 -4,8 0,2 0,5 3,2 5 3 9 5 SSW 1031,5 7 0 0,0
23.01.2018 22:00:00 -1,9 -2,2 -5,4 0,2 0,5 3,2 1 1 6 4 NW 1031,4 5 0 0,0
23.01.2018 21:00:00 -1,3 -1,7 -4,4 0,2 0,5 3,2 0 0 6 4 N 1031,2 6 0 0,0
23.01.2018 20:00:00 -0,9 -1,2 -3,4 0,2 0,5 3,2 3 2 6 3 SSW 1031,1 2,0 0 0,0
23.01.2018 19:00:00 0,1 -0,3 -0,9 0,2 0,5 3,2 3 2 9 5 N 1030,7 8 0 0,0
23.01.2018 18:00:00 0,9 0,4 -1,7 0,2 0,5 3,2 4 2 7 4 SW 1030,1 8 0 0,0
23.01.2018 17:00:00 2,3 1,2 0,2 0,2 0,5 3,2 2 1 6 4 SW 1029,2 30 0 0,0
23.01.2018 16:00:00 3,1 1,0 2,1 0,2 0,5 3,2 5 3 8 4 S 1028,6 34 9 0,0
23.01.2018 15:00:00 4,6 1,6 2,8 0,2 0,5 3,2 5 3 6 4 WSW 1028,0 57 38 0,0
23.01.2018 14:00:00 5,6 1,0 4,5 0,2 0,5 3,2 5 3 9 5 W 1027,6 57 54 0,0
23.01.2018 13:00:00 6,0 0,8 6,0 0,2 0,5 3,2 4 2 5 3 SSE 1027,6 28 36 0,0
23.01.2018 12:00:00 3,5 1,3 2,8 0,2 0,5 3,2 3 1 7 4 SSE 1029,0 23 0 0,0
23.01.2018 11:00:00 2,4 1,9 1,6 0,2 0,5 3,2 4 2 5 3 SW 1029,8 3,0 0 0,1
23.01.2018 10:00:00 1,7 1,5 1,2 0,2 0,5 3,2 2 1 5 3 W 1029,5 2,9 0 0,4
23.01.2018 09:00:00 1,3 1,2 0,6 0,2 0,5 3,2 4 2 7 4 W 1028,4 3,6 0 0,2
23.01.2018 08:00:00 1,1 0,8 0,4 0,2 0,5 3,2 2 1 5 3 WSW 1027,2 4,7 0 0,1
23.01.2018 07:00:00 1,2 1,0 0,5 0,2 0,5 3,2 0 0 9 5 WNW 1026,5 4,6 0 0,0
23.01.2018 06:00:00 1,3 1,1 0,5 0,2 0,5 3,2 4 2 9 5 S 1025,6 8 0 0,2
23.01.2018 05:00:00 1,5 1,2 0,7 0,2 0,5 3,2 2 1 10 5 W 1025,1 3,4 0 0,4
23.01.2018 04:00:00 1,8 1,4 1,1 0,2 0,5 3,3 4 2 19 10 E 1023,8 10 0 0,2
23.01.2018 03:00:00 2,1 1,8 1,6 0,2 0,5 3,3 8 4 15 8 E 1022,5 16 0 0,0
23.01.2018 02:00:00 1,3 1,0 0,5 0,2 0,5 3,3 5 3 14 8 W 1022,0 4,1 0 0,1
23.01.2018 01:00:00 1,2 1,0 0,6 0,2 0,5 3,3 4 2 9 5 W 1022,0 3,8 0 0,6
23.01.2018 00:00:00 1,3 1,0 0,6 0,2 0,5 3,3 0 0 9 5 N 1020,8 2,9 0 0,3
22.01.2018 23:00:00 1,5 1,2 0,8 0,2 0,5 3,3 3 1 9 5 S 1019,5 3,0 0 1,3
22.01.2018 22:00:00 1,1 1,0 0,6 0,2 0,5 3,3 4 2 7 4 WSW 1018,1 2,2 0 2,0
22.01.2018 21:00:00 1,3 1,2 0,6 0,2 0,5 3,3 4 2 7 4 W 1016,4 1,5 0 3,1
22.01.2018 20:00:00 1,4 1,3 0,8 0,3 0,6 3,4 3 2 8 5 WSW 1015,2 2,0 0 3,6
22.01.2018 19:00:00 1,3 1,2 0,6 0,3 0,6 3,4 4 2 7 4 W 1013,9 2,0 0 3,1
22.01.2018 18:00:00 1,4 1,3 0,7 0,3 0,6 3,4 3 2 10 5 WNW 1013,4 2,1 0 2,8
22.01.2018 17:00:00 1,4 1,0 0,8 0,3 0,6 3,4 3 2 11 6 WNW 1013,1 1,9 0 3,1
22.01.2018 16:00:00 2,3 1,9 1,1 0,3 0,6 3,4 7 4 10 5 SW 1012,1 5 0 0,3
22.01.2018 15:00:00 2,6 1,8 1,4 0,3 0,6 3,4 3 2 12 7 S 1012,1 10 0 1,2
22.01.2018 14:00:00 2,6 1,8 1,6 0,3 0,6 3,4 8 4 21 12 SW 1012,8 7 0 2,3
22.01.2018 13:00:00 1,8 1,1 1,5 0,3 0,6 3,4 4 2 8 4 ENE 1012,9 14 0 0,2
22.01.2018 12:00:00 1,6 0,6 1,3 0,3 0,6 3,4 3 2 8 4 S 1013,3 5 0 0,0
22.01.2018 11:00:00 1,1 0,5 1,0 0,3 0,6 3,4 3 2 8 4 N 1013,4 23 0 0,4
22.01.2018 10:00:00 0,7 0,2 0,0 0,3 0,6 3,4 4 2 7 4 NNW 1013,3 15 0 0,4
22.01.2018 09:00:00 0,5 0,3 0,0 0,3 0,6 3,4 3 2 7 4 E 1013,8 6 0 2,2
22.01.2018 08:00:00 0,3 0,0 -0,1 0,3 0,6 3,4 2 1 7 4 NW 1013,5 2,3 0 2,4
22.01.2018 07:00:00 -0,1 -0,5 -0,3 0,3 0,6 3,4 2 1 6 3 ENE 1013,4 2,3 0 2,6
22.01.2018 06:00:00 -0,9 -1,3 -0,5 0,3 0,6 3,4 3 2 7 4 W 1014,2 4,1 0 4,5
22.01.2018 05:00:00 -1,8 -2,4 -2,0 0,3 0,6 3,4 5 3 8 4 NNE 1014,9 2,5 0 4,9
22.01.2018 04:00:00 -2,1 -2,8 -2,2 0,3 0,6 3,4 0 0 4 2 N 1015,3 0,4 0 2,9
22.01.2018 03:00:00 -2,1 -2,8 -2,3 0,3 0,6 3,4 3 2 6 4 NE 1016,5 0,7 0 2,1
22.01.2018 02:00:00 -2,1 -2,8 -2,3 0,3 0,6 3,4 3 2 8 4 S 1017,4 1,6 0 1,1
22.01.2018 01:00:00 -2,0 -2,6 -2,3 0,3 0,6 3,4 5 3 8 5 SSW 1018,5 1,8 0 0,4
22.01.2018 00:00:00 -2,2 -3,1 -2,5 0,3 0,6 3,4 5 3 7 4 WSW 1019,8 2,4 0 0,2
21.01.2018 23:00:00 -2,1 -3,1 -2,4 0,3 0,6 3,4 4 2 10 5 NE 1020,8 4,7 0 0,1
21.01.2018 22:00:00 -2,7 -3,4 -3,6 0,3 0,6 3,4 2 1 5 3 SW 1021,5 15 0 0,0
21.01.2018 21:00:00 -2,9 -3,4 -6,3 0,3 0,6 3,4 0 0 4 2 N 1021,5 13 0 0,0
21.01.2018 20:00:00 -2,8 -3,1 -5,2 0,3 0,6 3,4 1 0 8 4 W 1022,0 9 0 0,0
21.01.2018 19:00:00 -2,0 -2,6 -5,5 0,3 0,6 3,4 3 2 13 7 W 1021,8 12 0 0,0
21.01.2018 18:00:00 -1,1 -2,6 -2,8 0,3 0,6 3,4 4 2 13 7 E 1021,3 29 0 0,0
21.01.2018 17:00:00 -0,2 -2,8 -1,3 0,3 0,6 3,4 7 4 15 8 SE 1020,5 50 0 0,0
21.01.2018 16:00:00 0,2 -2,1 -1,1 0,3 0,6 3,4 4 2 13 7 E 1019,6 35 0 0,0
21.01.2018 15:00:00 0,6 -2,7 -0,3 0,3 0,6 3,4 6 3 14 8 ENE 1018,5 29 0 0,0
21.01.2018 14:00:00 0,7 -1,7 0,0 0,3 0,6 3,4 4 2 11 6 NNE 1017,8 31 0 0,1
21.01.2018 13:00:00 0,4 -2,1 0,0 0,3 0,6 3,4 6 3 11 6 NNE 1017,2 8 0 0,4
21.01.2018 12:00:00 0,2 -1,5 0,0 0,3 0,6 3,4 4 2 20 11 E 1016,5 2,5 0 0,7
21.01.2018 11:00:00 0,2 -1,3 0,0 0,3 0,6 3,4 8 5 32 17 NNE 1015,3 1,8 0 0,8
21.01.2018 10:00:00 0,5 -0,7 0,0 0,3 0,6 3,4 6 3 18 10 ENE 1012,4 2,3 0 1,7
21.01.2018 09:00:00 0,7 -0,1 0,0 0,3 0,6 3,4 9 5 25 13 NE 1010,4 2,7 0 2,5
21.01.2018 08:00:00 0,6 0,1 0,0 0,3 0,6 3,4 2 1 17 9 ESE 1009,0 1,5 0 1,1
21.01.2018 07:00:00 0,7 0,1 0,0 0,3 0,6 3,4 6 3 10 5 N 1008,1 7 0 0,6
21.01.2018 06:00:00 0,6 0,0 0,0 0,3 0,6 3,4 2 1 13 7 N 1007,3 8 0 0,6
21.01.2018 05:00:00 0,8 0,3 0,0 0,3 0,6 3,4 5 3 14 7 E 1006,5 9 0 1,8
21.01.2018 04:00:00 0,5 0,1 0,0 0,3 0,6 3,4 5 3 16 9 NW 1004,8 2,7 0 2,6
21.01.2018 03:00:00 0,3 0,0 0,0 0,3 0,6 3,4 5 3 14 7 ESE 1002,8 2,4 0 1,7
21.01.2018 02:00:00 0,3 0,0 0,0 0,3 0,6 3,4 2 1 7 4 ENE 1001,0 1,7 0 2,5
21.01.2018 01:00:00 0,2 0,0 0,0 0,3 0,6 3,4 2 1 6 4 N 1001,2 0,9 0 2,9
21.01.2018 00:00:00 0,3 -0,1 0,0 0,3 0,6 3,4 4 2 11 6 NNW 1000,8 0,9 0 2,2
20.01.2018 23:00:00 0,3 -0,1 0,0 0,3 0,6 3,4 5 3 12 6 N 1000,8 1,8 0 3,9
20.01.2018 22:00:00 0,3 0,0 0,0 0,3 0,6 3,4 0 0 16 8 N 1001,6 0,9 0 2,4
20.01.2018 21:00:00 0,3 -0,1 0,0 0,3 0,6 3,4 8 4 17 9 NNE 1001,1 1,2 0 3,2
20.01.2018 20:00:00 0,3 -0,3 0,0 0,3 0,6 3,4 3 2 13 7 NNW 1001,4 0,6 0 0,7
20.01.2018 19:00:00 0,6 -0,8 0,0 0,3 0,6 3,4 8 5 13 7 S 1002,4 3,1 0 0,0
20.01.2018 18:00:00 0,5 -0,6 -0,2 0,3 0,6 3,4 5 3 8 5 SSW 1003,7 33 0 0,0
20.01.2018 17:00:00 0,8 -0,1 -0,2 0,3 0,6 3,4 5 3 8 4 WSW 1004,8 27 0 0,0
20.01.2018 16:00:00 1,5 -0,1 0,4 0,3 0,6 3,4 4 2 9 5 WSW 1006,0 26 0 0,0
20.01.2018 15:00:00 2,0 -1,2 0,9 0,3 0,6 3,4 4 2 9 5 SSW 1007,9 58 0 0,0
20.01.2018 14:00:00 3,4 -2,3 1,5 0,2 0,6 3,4 2 1 6 4 WNW 1009,0 61 34 0,0
20.01.2018 13:00:00 2,9 -3,0 1,6 0,2 0,6 3,4 2 1 8 4 ENE 1010,8 70 27 0,0
20.01.2018 12:00:00 1,3 -1,6 0,3 0,2 0,6 3,4 2 1 7 4 WSW 1013,2 30 7 0,0
20.01.2018 11:00:00 -0,8 -2,4 -0,9 0,2 0,6 3,4 5 3 10 5 NNE 1015,2 27 0 0,0
20.01.2018 10:00:00 -2,2 -3,0 -2,4 0,2 0,6 3,4 5 3 9 5 WSW 1015,9 15 0 0,0
20.01.2018 09:00:00 -3,4 -4,0 -7,8 0,2 0,6 3,4 2 1 9 5 N 1016,3 18 0 0,0
20.01.2018 08:00:00 -4,1 -4,7 -8,3 0,2 0,6 3,4 4 2 8 4 SSW 1016,9 15 0 0,0
20.01.2018 07:00:00 -3,1 -3,5 -6,5 0,2 0,6 3,4 1 1 5 3 NNW 1016,8 26 0 0,0
20.01.2018 06:00:00 -2,7 -3,2 -8,3 0,2 0,6 3,4 2 1 6 4 N 1016,9 25 0 0,0
20.01.2018 05:00:00 -1,6 -2,3 -5,8 0,2 0,6 3,4 4 2 13 7 WSW 1016,4 70 0 0,2
20.01.2018 04:00:00 -0,4 -0,8 -2,1 0,2 0,6 3,4 2 1 9 5 NW 1016,6 4,8 0 0,1
20.01.2018 03:00:00 0,0 -0,5 -0,7 0,2 0,6 3,4 2 1 14 7 ESE 1016,5 5 0 0,1
20.01.2018 02:00:00 0,0 -0,4 -1,2 0,2 0,6 3,4 5 3 13 7 NE 1016,2 21 0 0,6
20.01.2018 01:00:00 0,2 -0,2 -0,2 0,2 0,6 3,4 5 3 11 6 E 1015,6 1,1 0 0,9
20.01.2018 00:00:00 0,1 -0,6 -0,6 0,2 0,5 3,5 4 2 18 10 N 1015,0 69 0 0,2
19.01.2018 23:00:00 0,3 -0,6 -0,3 0,2 0,5 3,5 6 4 12 7 WSW 1014,9 2,7 0 0,0
19.01.2018 22:00:00 0,2 -0,5 -0,7 0,2 0,5 3,5 3 2 11 6 N 1014,8 15 0 0,1
19.01.2018 21:00:00 0,3 -0,3 -0,3 0,2 0,5 3,5 3 2 9 5 SE 1014,6 12 0 0,0
19.01.2018 20:00:00 0,2 -0,1 -0,4 0,2 0,5 3,5 5 3 7 4 SW 1014,9 4,4 0 0,0
19.01.2018 19:00:00 0,1 -0,2 -0,8 0,2 0,5 3,5 3 2 6 3 N 1014,9 10 0 0,0
19.01.2018 18:00:00 0,2 -0,2 -0,8 0,2 0,5 3,5 2 1 7 4 WNW 1014,8 9 0 0,0
19.01.2018 17:00:00 0,5 -0,2 -0,8 0,2 0,5 3,5 4 2 7 4 SSW 1014,8 9 0 0,0
19.01.2018 16:00:00 1,1 -0,1 0,1 0,2 0,5 3,5 6 3 9 5 NE 1014,3 35 0 0,0
19.01.2018 15:00:00 1,3 -0,5 0,6 0,2 0,5 3,5 4 2 11 6 NNE 1014,3 58 0 0,1
19.01.2018 14:00:00 1,9 0,1 1,6 0,2 0,5 3,5 5 3 10 5 WSW 1013,9 39 0 0,0
19.01.2018 13:00:00 1,4 -0,5 0,7 0,2 0,5 3,5 5 3 12 6 NE 1014,8 37 0 0,1
19.01.2018 12:00:00 1,0 -0,5 0,2 0,2 0,5 3,5 8 4 17 9 E 1014,9 12 0 0,0
19.01.2018 11:00:00 0,9 0,2 0,1 0,2 0,5 3,5 6 3 11 6 NE 1014,8 7 0 0,4
19.01.2018 10:00:00 0,9 0,3 0,0 0,2 0,5 3,5 5 3 16 8 NE 1013,9 11 0 0,5
19.01.2018 09:00:00 0,6 -0,1 0,0 0,2 0,5 3,5 8 4 19 10 NE 1013,1 3,9 0 1,0
19.01.2018 08:00:00 0,6 0,4 0,0 0,2 0,5 3,5 7 4 21 11 SSE 1011,2 5 0 1,8
19.01.2018 07:00:00 0,5 0,2 0,0 0,2 0,5 3,5 8 4 16 9 NE 1009,6 3,4 0 2,8
19.01.2018 06:00:00 0,5 0,3 0,0 0,2 0,5 3,5 6 3 14 8 ESE 1009,1 6 0 0,6
19.01.2018 05:00:00 0,3 0,0 0,0 0,2 0,5 3,6 2 1 8 4 SE 1009,0 10 0 1,7
19.01.2018 04:00:00 0,3 0,1 0,0 0,2 0,5 3,6 3 1 9 5 E 1008,8 2,9 0 2,2
19.01.2018 03:00:00 0,4 0,1 0,0 0,2 0,5 3,6 5 3 11 6 ESE 1009,1 2,1 0 3,0
19.01.2018 02:00:00 1,1 0,7 0,5 0,2 0,5 3,6 3 1 12 6 NNW 1008,2 8 0 4,4
19.01.2018 01:00:00 2,9 2,0 2,0 0,2 0,6 3,6 9 5 19 11 ESE 1007,5 8 0 3,0
19.01.2018 00:00:00 4,0 3,3 2,8 0,2 0,6 3,6 6 4 14 8 E 1006,2 7 0 1,9
18.01.2018 23:00:00 5,7 2,6 2,6 0,2 0,6 3,6 6 4 32 17 WSW 1005,6 17 0 0,1
18.01.2018 22:00:00 8,9 -1,5 6,6 0,2 0,6 3,6 11 6 39 21 W 1003,7 70 0 0,0
18.01.2018 21:00:00 4,3 1,4 2,2 0,2 0,6 3,6 5 3 14 8 ENE 1005,5 39 0 0,1
18.01.2018 20:00:00 2,7 1,3 1,5 0,2 0,6 3,6 6 3 17 9 S 1005,9 23 0 0,0
18.01.2018 19:00:00 3,0 1,0 1,1 0,2 0,6 3,6 6 3 12 6 E 1005,8 32 0 0,0
18.01.2018 18:00:00 3,3 0,8 1,4 0,2 0,6 3,6 4 2 20 11 E 1005,6 33 0 0,0
18.01.2018 17:00:00 5,5 0,6 2,9 0,2 0,6 3,6 5 3 24 13 SSE 1005,5 48 0 0,0
18.01.2018 16:00:00 6,8 0,7 4,4 0,2 0,6 3,6 8 4 27 15 SW 1004,9 70 0 0,0
18.01.2018 15:00:00 7,6 0,8 6,1 0,2 0,6 3,6 19 10 40 22 WSW 1005,2 56 0 0,0
18.01.2018 14:00:00 7,0 1,3 6,1 0,2 0,6 3,6 19 11 36 19 W 1005,7 36 10 0,0
18.01.2018 13:00:00 5,1 1,4 3,4 0,2 0,6 3,6 11 6 24 13 W 1006,8 20 3 0,2
18.01.2018 12:00:00 3,4 0,0 2,9 0,2 0,6 3,6 6 3 17 9 ENE 1007,9 46 14 0,0
18.01.2018 11:00:00 2,1 -0,4 0,7 0,2 0,6 3,6 7 4 16 9 ESE 1009,5 55 0 0,0
18.01.2018 10:00:00 1,5 -1,2 0,1 0,2 0,6 3,6 10 5 20 11 E 1009,9 51 0 0,0

tt = Température de l'air
td = dewpoint
tt 5cm = Température de l'air 5cm
tt -5cm = Température de l'air -5cm
tt -20cm = Température de l'air -20cm
tt -100cm = Température de l'air -100cm
ff = Vitesse du vent
fx = gusts
dd = Direction du vent
ppp = reduced air pressure
vv = visibility
sd = Ensoleillement
rr = Quantités de précipitations

stations d'obs. à proximité